Weather History for KAKO - October, 2013

Change the Weather History Date:

Sunday, October 6, 2013

  Actual Average Record
Temperature  
Mean Temperature 51 °F 54 °F  
Max Temperature 65 °F 68 °F 90 °F (2007)
Min Temperature 37 °F 40 °F 18 °F (1952)
Degree Days  
Heating Degree Days 14    
Month to date heating degree days 85  
Cooling Degree Days 0    
Month to date cooling degree days 0  
Moisture  
Dew Point 32 °F    
Average Humidity 54    
Maximum Humidity 76    
Minimum Humidity 31    
Precipitation  
Precipitation 0.00 in 0.04 in 0.34 in (1992)
Month to date precipitation 0.09 0.25  
Year to date precipitation 15.80 14.90  
Sea Level Pressure  
Sea Level Pressure 30.17 in    
Wind  
Wind Speed 19 mph (NW)    
Max Wind Speed 31 mph    
Max Gust Speed 39 mph    
Visibility 10 miles    
Events      
T = Trace of Precipitation, MM = Missing Value Source: NWS Daily Summary

Daily Weather History Graph

Daily Weather History Graph

Search for Another Location

Airport or City:

Trip Planner

Search our weather history database for the weather conditions in past years. The results will help you decide how hot, cold, wet, or windy it might be!

Date:

Astronomy

Oct. 06, 2013 Rise Set
Actual Time 6:54 AM MDT 6:26 PM MDT
Civil Twilight 6:27 AM MDT 6:53 PM MDT
Nautical Twilight 5:55 AM MDT 7:25 PM MDT
Astronomical Twilight 5:24 AM MDT 7:56 PM MDT
Moon 8:41 AM MDT (10/6) 7:27 PM MDT (10/6)
Length of Visible Light 12h 26m
Length of Day
11h 32m
Waxing Crescent, 4% of the Moon is Illuminated
Oct 6
Waxing Crescent
Oct 11
First Quarter
Oct 18
Full
Oct 26
Last Quarter
Nov 3
New

Hourly Weather History & Observations

Time (MDT) Temp. Windchill Dew Point Humidity Pressure Visibility Wind Dir Wind Speed Gust Speed Precip Events Conditions
12:53 AM 44.1 °F 35.0 °F 24.1 °F 45% 30.16 in 10.0 mi NW 24.2 mph 31.1 mph N/A   Clear
1:53 AM 43.0 °F 34.5 °F 25.0 °F 49% 30.17 in 10.0 mi NW 19.6 mph - N/A   Clear
2:53 AM 43.0 °F 34.5 °F 27.0 °F 53% 30.16 in 10.0 mi NW 19.6 mph - N/A   Clear
3:53 AM 43.0 °F 34.2 °F 28.0 °F 56% 30.15 in 10.0 mi NW 20.7 mph 27.6 mph N/A   Clear
4:53 AM 44.1 °F 35.9 °F 28.0 °F 53% 30.17 in 10.0 mi NW 19.6 mph - N/A   Clear
5:53 AM 37.0 °F 28.9 °F 28.0 °F 70% 30.20 in 10.0 mi West 12.7 mph - N/A   Clear
6:53 AM 39.9 °F 31.4 °F 28.0 °F 63% 30.21 in 10.0 mi WNW 16.1 mph - N/A   Clear
7:53 AM 43.0 °F 36.0 °F 30.0 °F 60% 30.22 in 10.0 mi WNW 13.8 mph - N/A   Clear
8:53 AM 51.1 °F - 30.9 °F 46% 30.20 in 10.0 mi NW 21.9 mph 27.6 mph N/A   Clear
9:53 AM 55.9 °F - 30.9 °F 39% 30.18 in 10.0 mi NW 27.6 mph 35.7 mph N/A   Clear
10:53 AM 59.0 °F - 30.9 °F 35% 30.18 in 10.0 mi NNW 27.6 mph 33.4 mph N/A   Clear
11:53 AM 61.0 °F - 32.0 °F 34% 30.17 in 10.0 mi NNW 24.2 mph 33.4 mph N/A   Clear
12:53 PM 63.0 °F - 33.1 °F 33% 30.16 in 10.0 mi NNW 25.3 mph 32.2 mph N/A   Clear
1:53 PM 64.0 °F - 34.0 °F 33% 30.14 in 10.0 mi NNW 25.3 mph 32.2 mph N/A   Clear
2:53 PM 64.9 °F - 34.0 °F 32% 30.13 in 10.0 mi NNW 24.2 mph 29.9 mph N/A   Clear
3:53 PM 64.0 °F - 34.0 °F 33% 30.14 in 10.0 mi NNW 20.7 mph 29.9 mph N/A   Clear
4:53 PM 63.0 °F - 34.0 °F 34% 30.14 in 10.0 mi NNW 18.4 mph 27.6 mph N/A   Clear
5:53 PM 59.0 °F - 35.1 °F 41% 30.18 in 10.0 mi North 10.4 mph - N/A   Clear
6:53 PM 50.0 °F - 36.0 °F 59% 30.20 in 10.0 mi NNW 4.6 mph - N/A   Clear
7:53 PM 52.0 °F - 35.1 °F 53% 30.19 in 10.0 mi Calm Calm - N/A   Clear
8:53 PM 46.9 °F - 35.1 °F 63% 30.19 in 10.0 mi WNW 6.9 mph - N/A   Clear
9:53 PM 45.0 °F 41.2 °F 35.1 °F 68% 30.18 in 10.0 mi West 6.9 mph - N/A   Clear
10:53 PM 43.0 °F 38.8 °F 35.1 °F 74% 30.18 in 10.0 mi WSW 6.9 mph - N/A   Clear
11:53 PM 45.0 °F 40.6 °F 35.1 °F 68% 30.16 in 10.0 mi SW 8.1 mph - N/A   Clear